Weather History for Huntsville, AL

Change the Weather History Date:

Tuesday, August 6, 2013

  Actual Average Record
Temperature  
Mean Temperature 77 °F 81 °F  
Max Temperature 83 °F 91 °F 106 °F (1930)
Min Temperature 71 °F 70 °F 55 °F (1948)
Degree Days  
Heating Degree Days 0 0  
Month to date heating degree days 0 0  
Since 1 June heating degree days 0 1  
Since 1 July heating degree days 0 0  
Cooling Degree Days 12 16  
Month to date cooling degree days 74 96  
Year to date cooling degree days 1152 1221  
Since 1 June cooling degree days 919 958  
Growing Degree Days 26 (Base 50)    
Moisture  
Dew Point 72 °F    
Average Humidity 87    
Maximum Humidity 100    
Minimum Humidity 74    
Precipitation  
Precipitation 0.41 in 0.12 in 1.60 in (1931)
Month to date precipitation 0.41 0.75  
Year to date precipitation 42.22 33.46  
Snow  
Snow 0.00 in - - ()
Month to date snowfall 0.0  
Since 1 June snowfall 0.0  
Since 1 July snowfall 0.0  
Snow Depth 0.00 in    
Sea Level Pressure  
Sea Level Pressure 29.98 in    
Wind  
Wind Speed 3 mph (SE)    
Max Wind Speed 13 mph    
Max Gust Speed 14 mph    
Visibility 8 miles    
Events Rain , Thunderstorm    
T = Trace of Precipitation, MM = Missing Value Source: NWS Daily Summary

Daily Weather History Graph

Daily Weather History Graph

Search for Another Location

Airport:

Trip Planner

Search our weather history database for the weather conditions in past years. The results will help you decide how hot, cold, wet, or windy it might be!

Date:

Astronomy

Aug. 06, 2013 Rise Set
Actual Time 6:01 AM CDT 7:44 PM CDT
Civil Twilight 5:33 AM CDT 8:11 PM CDT
Nautical Twilight 5:00 AM CDT 8:44 PM CDT
Astronomical Twilight 4:26 AM CDT 9:18 PM CDT
Moon 5:49 AM CDT (8/6) 7:22 PM CDT (8/6)
Length of Visible Light 14h 37m
Length of Day
13h 43m
Waning Crescent, 0% of the Moon is Illuminated
Aug 6
Waning Crescent
Aug 6
New
Aug 14
First Quarter
Aug 20
Full
Aug 28
Last Quarter

Hourly Weather History & Observations

Time (CDT) Temp. Heat Index Dew Point Humidity Pressure Visibility Wind Dir Wind Speed Gust Speed Precip Events Conditions
12:53 AM 73.0 °F - 68.0 °F 84% 29.95 in 10.0 mi ESE 3.5 mph - N/A   Partly Cloudy
1:53 AM 73.9 °F - 69.1 °F 85% 29.94 in 10.0 mi ESE 3.5 mph - N/A   Overcast
2:53 AM 73.0 °F - 69.1 °F 87% 29.94 in 10.0 mi Calm Calm - N/A   Mostly Cloudy
3:53 AM 73.0 °F - 68.0 °F 84% 29.94 in 10.0 mi ESE 3.5 mph - N/A   Mostly Cloudy
4:53 AM 73.0 °F - 69.1 °F 87% 29.94 in 10.0 mi Calm Calm - 0.00 in   Overcast
5:25 AM 73.4 °F - 69.8 °F 88% 29.98 in 10.0 mi Calm Calm - N/A Thunderstorm Overcast
5:48 AM 73.4 °F - 69.8 °F 88% 29.99 in 10.0 mi West 4.6 mph - N/A Thunderstorm Thunderstorm
5:53 AM 72.0 °F - 70.0 °F 93% 29.97 in 4.0 mi WSW 4.6 mph - 0.00 in Rain , Thunderstorm Heavy Thunderstorms and Rain
6:24 AM 71.6 °F - 69.8 °F 94% 29.98 in 6.0 mi Calm Calm - 0.18 in Rain Light Rain
6:44 AM 71.6 °F - 69.8 °F 94% 29.99 in 7.0 mi East 4.6 mph - 0.18 in   Overcast
6:53 AM 72.0 °F - 70.0 °F 93% 29.97 in 7.0 mi SE 3.5 mph - 0.18 in   Overcast
6:58 AM 71.6 °F - 69.8 °F 94% 29.99 in 7.0 mi SE 4.6 mph - N/A Thunderstorm Thunderstorm
7:34 AM 71.6 °F - 71.6 °F 100% 30.01 in 5.0 mi NE 8.1 mph - N/A Thunderstorm Overcast
7:51 AM 73.4 °F - 69.8 °F 88% 30.01 in 7.0 mi East 5.8 mph - N/A   Overcast
7:53 AM 73.0 °F - 70.0 °F 90% 29.99 in 7.0 mi East 5.8 mph - N/A   Overcast
8:10 AM 73.4 °F - 71.6 °F 94% 30.02 in 7.0 mi East 4.6 mph - N/A   Overcast
8:26 AM 73.4 °F - 71.6 °F 94% 30.02 in 7.0 mi East 5.8 mph - N/A   Overcast
8:53 AM 73.0 °F - 72.0 °F 96% 30.00 in 7.0 mi SE 4.6 mph - N/A   Overcast
9:34 AM 75.2 °F - 73.4 °F 94% 30.02 in 7.0 mi ESE 5.8 mph - 0.03 in Rain Light Rain
9:47 AM 75.2 °F - 73.4 °F 94% 30.02 in 7.0 mi SE 4.6 mph - 0.03 in Thunderstorm Thunderstorm
9:48 AM 75.0 °F - 73.0 °F 94% 30.00 in 7.0 mi SE 4.6 mph - 0.03 in Thunderstorm Thunderstorm
10:15 AM 75.2 °F - 73.4 °F 94% 30.04 in 2.5 mi Calm Calm - 0.00 in Rain , Thunderstorm Heavy Thunderstorms and Rain
10:20 AM 73.4 °F - 73.4 °F 100% 30.04 in 1.0 mi ENE 4.6 mph - 0.05 in Rain , Thunderstorm Heavy Thunderstorms and Rain
10:30 AM 73.4 °F - 73.4 °F 100% 30.02 in 3.0 mi South 5.8 mph - 0.19 in Rain , Thunderstorm Light Thunderstorms and Rain
10:38 AM 73.4 °F - 73.4 °F 100% 30.02 in 6.0 mi SSE 6.9 mph - 0.19 in Thunderstorm Overcast
10:53 AM 73.9 °F - 73.0 °F 97% 30.01 in 6.0 mi SE 6.9 mph - 0.19 in Rain Light Rain
11:53 AM 78.1 °F - 75.0 °F 90% 30.00 in 10.0 mi South 5.8 mph - 0.00 in   Mostly Cloudy
12:53 PM 81.0 °F 86.2 °F 73.9 °F 79% 29.99 in 10.0 mi South 5.8 mph - N/A   Overcast
1:53 PM 82.0 °F 87.9 °F 73.9 °F 76% 29.97 in 10.0 mi Calm Calm - N/A   Overcast
2:42 PM 80.6 °F 86.2 °F 75.2 °F 84% 30.00 in 10.0 mi NW 3.5 mph - N/A   Overcast
2:53 PM 81.0 °F 86.7 °F 75.0 °F 82% 29.97 in 10.0 mi NW 4.6 mph - N/A   Overcast
3:22 PM 80.6 °F 86.2 °F 75.2 °F 84% 29.99 in 8.0 mi NW 3.5 mph - 0.00 in Rain Light Rain
3:53 PM 80.1 °F 85.1 °F 75.0 °F 85% 29.96 in 7.0 mi Calm Calm - 0.00 in Rain Light Rain
4:53 PM 79.0 °F - 75.9 °F 90% 29.96 in 7.0 mi NNW 4.6 mph - 0.00 in Rain Light Rain
5:53 PM 80.1 °F 85.1 °F 75.0 °F 85% 29.96 in 9.0 mi Calm Calm - 0.00 in   Overcast
6:53 PM 79.0 °F - 75.0 °F 88% 29.96 in 10.0 mi South 3.5 mph - N/A   Overcast
7:53 PM 77.0 °F - 75.9 °F 96% 29.96 in 4.0 mi SE 3.5 mph - 0.01 in Rain Light Rain
8:53 PM 77.0 °F - 75.0 °F 94% 29.96 in 9.0 mi South 4.6 mph - 0.00 in   Overcast
9:53 PM 75.9 °F - 75.0 °F 97% 29.96 in 8.0 mi SE 4.6 mph - N/A   Overcast
10:53 PM 75.9 °F - 73.9 °F 94% 29.96 in 10.0 mi ESE 3.5 mph - N/A   Overcast
11:53 PM 75.9 °F - 73.9 °F 94% 29.96 in 8.0 mi Calm Calm - N/A   Overcast